Back to catalog

CZ-4B DEB

AliveLEO
NORAD 40530·DEBRIS·🇨🇳 China

Launched Oct 25, 2013 from Jiuquan Satellite Launch Center

Loading…

Next Passes (next 24 hours)

TLE

FreshSource: Space-Track

Epoch: Sep 14, 2026, 05:50 UTC

1 40530U 13057C   26257.24333400  .00001626  00000-0  27685-3 0  9995
2 40530  75.0466  97.3022 0169421 305.7691  52.7827 14.60707846605374

Track CZ-4B DEB in real time with AllMySat

Download on the App Store